Temperature
28 25 25 25 26 27 27 27 26 27 28 27 26 25 26 26 26 25 25 25 24 24 24 24 23 23 23 23 22 22 22 21 21 21 20 20 20 20 19 19 19 19 19 19
25 25 27 28 28 28 27 27 27 27 28 27 25 25 25 26 25 25 25 25 25 24 23 23 23 23 23 23 22 22 21 21 21 21 21 20 20 19 19 19 19 19 19 19
26 27 29 29 28 28 27 27 27 27 28 27 26 25 24 25 25 25 25 25 25 24 23 23 23 23 23 23 22 22 22 21 21 21 20 20 20 20 19 19 19 19 19 19
26 28 29 29 28 28 27 28 29 28 26 25 26 24 24 24 24 24 25 25 24 24 23 23 23 23 23 22 22 22 22 21 21 21 20 20 20 20 19 19 19 19 19 19
26 28 29 29 29 29 28 28 28 28 26 24 25 24 23 23 23 24 24 24 24 24 24 23 23 23 23 22 22 22 22 21 21 21 20 20 20 20 19 19 19 19 19 19
27 28 29 29 30 30 29 28 26 24 23 23 24 24 23 23 24 24 24 24 25 24 24 24 23 23 22 22 22 22 21 21 21 20 20 20 20 19 19 19 19 19 19 19
27 28 29 29 29 28 28 24 23 24 22 23 23 24 23 24 25 24 24 24 25 24 24 23 23 22 22 22 21 21 21 21 20 20 20 20 20 19 19 19 19 19 19 19
25 25 28 29 28 27 26 24 23 24 23 23 23 24 24 25 25 26 25 25 24 24 24 23 23 23 22 22 22 21 21 21 20 20 20 20 19 19 19 19 19 19 18 18
25 25 28 29 29 28 27 24 23 22 23 23 23 24 24 25 24 24 25 24 24 24 23 23 23 23 22 22 22 21 21 21 20 20 20 19 19 19 19 19 18 18 18 18
25 26 27 29 29 28 27 25 22 22 22 22 23 23 23 24 23 24 23 24 24 24 23 23 23 22 22 22 21 21 21 21 20 20 19 19 19 19 19 18 18 18 18 18
25 25 25 26 27 27 26 25 22 20 21 21 22 22 24 23 23 22 23 24 24 24 23 22 22 22 22 21 21 21 21 20 20 20 19 19 19 19 18 18 18 18 18 18
24 22 23 25 26 27 26 25 22 22 22 20 21 22 25 23 23 23 23 24 24 24 23 23 23 22 21 21 21 21 20 20 20 20 19 19 19 18 18 18 18 18 18 17
25 22 22 23 24 25 26 25 24 21 20 20 21 22 24 23 23 24 24 24 23 23 23 23 22 22 21 21 21 21 20 20 20 20 19 19 19 18 18 18 18 17 17 17
24 21 22 23 23 24 25 26 25 22 21 21 21 22 22 22 22 22 23 23 23 23 23 22 22 21 21 21 21 21 20 20 20 19 19 19 18 18 18 17 17 17 17 17
22 22 23 23 24 25 26 26 26 24 22 22 22 22 22 22 22 22 22 22 22 22 22 22 22 21 21 21 21 20 20 20 19 19 19 18 18 18 17 17 17 17 17 16
21 22 23 23 25 25 25 25 25 25 24 23 23 22 22 22 22 22 22 21 21 21 21 21 21 21 21 21 20 20 20 20 19 19 19 18 18 17 17 17 17 16 16 16
20 20 21 21 23 24 23 23 24 23 23 22 22 21 21 21 21 21 21 21 21 21 21 21 21 21 21 20 20 20 20 19 19 19 18 18 18 17 17 17 16 16 16 16
20 19 18 19 22 22 22 23 24 23 22 22 22 21 21 21 21 22 22 21 21 21 21 21 21 21 20 20 20 20 19 19 19 18 18 17 17 17 17 16 16 16 16 15
19 19 18 18 19 21 22 23 23 22 21 21 21 21 21 21 21 20 21 21 21 21 21 21 20 20 20 20 20 19 19 19 18 18 17 17 17 16 16 16 16 15 15 15
19 18 18 18 20 20 20 22 23 22 20 20 20 20 20 20 18 18 20 21 21 21 20 20 20 20 20 19 19 19 18 18 18 17 17 17 16 16 16 15 15 15 15 15
19 18 18 18 19 19 20 21 22 20 19 20 21 20 20 19 19 20 20 20 20 20 20 19 19 19 19 19 18 18 18 17 17 17 17 16 16 16 15 15 15 15 14 14
18 18 18 17 18 18 20 20 19 19 20 20 20 20 20 20 20 19 19 19 19 19 19 19 19 18 18 18 18 17 17 17 17 17 16 16 16 15 15 15 15 14 14 14
17 17 16 16 17 18 20 20 20 21 20 20 20 20 20 19 19 19 18 18 18 18 18 18 18 18 17 17 17 17 17 16 16 16 16 16 15 15 15 14 14 14 14 14
17 17 16 16 17 18 19 20 20 20 20 20 20 20 20 19 19 18 18 18 18 18 18 18 17 17 17 17 16 16 16 16 16 15 15 15 15 14 14 14 14 14 13 13
17 17 15 16 16 17 18 19 19 19 20 20 20 20 19 19 18 18 18 17 17 17 17 17 17 16 16 16 16 16 15 15 15 15 14 14 14 14 14 14 14 13 13 13
16 16 15 15 16 16 17 18 19 19 19 19 19 18 18 18 18 18 17 17 17 17 16 16 16 16 16 15 15 15 15 15 14 14 14 14 14 13 13 13 13 13 13 13
Wind_Speed
3 1 5 7 7 6 3 3 5 6 4 2 4 5 7 8 8 9 9 10 10 10 9 9 10 11 10 9 8 7 7 6 5 3 3 3 2 2 2 2 3 4 4 4
4 6 11 7 5 3 3 3 5 6 2 2 4 4 5 7 10 11 12 11 11 10 8 9 8 9 10 10 9 8 7 7 6 4 3 3 3 2 2 1 2 3 4 3
8 10 8 5 5 2 4 5 6 5 2 2 4 2 2 4 5 6 8 10 10 11 12 10 10 10 10 10 10 9 8 7 5 4 3 3 3 2 2 1 1 1 3 4
7 9 7 6 6 4 5 5 4 4 1 2 3 2 6 4 4 7 9 10 11 10 11 11 10 10 11 10 9 8 7 6 5 5 5 5 4 3 3 2 1 1 2 3
7 6 6 7 7 5 6 5 3 3 2 1 2 2 6 3 5 9 10 11 12 11 12 12 12 12 11 10 9 8 7 6 5 5 5 5 3 2 2 2 2 1 1 1
9 7 5 7 6 4 3 2 4 4 4 1 4 2 5 5 8 9 10 11 11 10 10 10 10 10 9 9 8 8 8 6 6 6 5 5 5 4 4 2 2 1 1 1
8 9 6 4 4 5 2 5 4 5 4 5 4 1 7 7 7 10 11 12 11 10 11 10 11 11 11 11 10 9 9 7 6 6 5 5 5 5 5 4 3 2 1 1
4 8 6 4 6 6 4 8 7 4 4 5 4 2 6 4 3 5 8 9 9 9 9 10 11 12 12 12 10 9 9 8 7 6 5 4 5 4 3 3 3 3 2 2
6 8 7 5 4 6 3 3 8 7 2 0 4 4 5 2 1 2 4 6 8 8 8 9 11 12 11 11 10 9 9 8 7 6 5 4 4 4 3 3 3 2 2 2
8 5 7 4 2 1 6 6 6 5 3 2 4 3 4 5 3 3 3 5 8 9 8 8 9 9 9 9 8 7 7 8 7 7 6 5 4 4 3 3 2 2 2 2
5 4 6 4 1 3 1 3 5 5 5 5 3 6 6 8 6 6 6 7 9 11 10 10 8 8 8 8 8 8 7 7 7 6 5 4 4 4 3 3 3 2 2 2
4 5 3 6 5 3 5 4 6 4 4 5 5 7 6 6 5 6 6 7 8 9 10 9 8 7 7 7 7 7 6 7 7 6 5 4 4 3 3 3 3 2 2 2
3 5 1 7 7 5 2 1 3 5 4 4 5 6 3 2 2 4 6 7 7 8 8 8 7 6 6 6 6 6 6 6 6 6 5 4 4 4 4 4 3 2 2 2
5 5 6 6 7 4 3 4 2 4 4 4 6 5 2 2 4 3 5 6 7 7 8 8 7 6 6 6 6 6 6 6 6 5 5 5 5 5 4 4 3 3 3 2
5 3 2 4 4 1 2 4 4 2 6 7 6 6 5 5 7 6 7 7 7 7 7 7 7 6 6 5 5 5 5 5 6 5 5 5 4 3 3 3 3 3 2 3
4 3 2 3 3 3 4 5 3 1 1 3 4 3 3 3 6 7 7 9 8 5 5 6 6 6 6 6 5 4 4 5 5 5 5 4 4 3 3 3 2 2 2 2
2 4 2 3 4 4 3 4 2 1 1 4 4 4 3 5 6 7 8 8 9 7 5 5 6 6 6 6 6 5 5 4 5 5 4 4 4 3 3 3 2 2 2 2
4 3 3 1 3 2 5 3 2 4 3 3 2 3 5 6 5 5 7 8 7 6 6 5 4 4 4 5 5 5 4 5 5 4 3 3 3 3 2 2 3 3 3 2
5 6 3 3 3 3 4 4 1 2 3 5 3 3 4 6 7 4 3 5 6 5 5 4 5 5 4 4 5 5 4 4 4 3 3 3 3 3 3 3 4 3 3 3
4 6 5 3 3 4 5 6 3 5 2 5 3 4 3 5 4 2 1 3 4 5 4 4 4 5 5 4 5 5 4 4 4 4 3 3 3 3 3 4 3 2 3 3
4 4 2 3 3 4 6 6 3 3 4 3 2 4 4 4 5 4 3 4 5 5 5 5 5 4 3 4 5 5 4 3 3 3 3 2 3 3 3 3 2 2 2 2
2 1 0 2 2 5 5 2 3 5 3 1 4 4 5 5 6 5 5 5 5 5 5 5 5 3 3 4 5 4 2 1 1 2 2 2 2 2 2 2 2 1 1 1
2 4 4 4 5 5 1 3 3 4 4 2 3 4 6 5 5 5 4 4 3 4 5 5 5 4 3 3 4 3 1 1 2 1 1 1 1 1 1 2 2 1 1 2
2 2 3 2 1 1 3 3 2 2 3 3 4 5 6 6 6 5 4 3 3 3 3 4 5 4 2 1 2 2 1 1 2 1 1 1 1 1 1 1 2 2 2 2
3 1 2 1 1 2 4 3 2 2 4 4 5 5 6 6 5 5 5 4 3 2 2 3 3 3 2 2 1 1 1 2 2 0 1 1 1 2 2 2 2 3 4 4
2 3 4 4 5 3 3 2 2 3 3 3 4 4 4 5 5 5 4 3 3 3 3 3 2 2 1 1 1 0 0 2 2 1 1 1 2 2 2 2 2 3 4 5
Wind_Direction
280 62 253 242 216 209 245 272 268 271 249 142 158 177 189 186 172 172 171 167 169 177 176 170 170 169 160 158 157 160 154 158 152 144 140 138 145 154 149 154 148 139 136 126
337 272 247 231 230 224 266 273 274 287 242 152 170 191 203 194 189 186 179 180 179 176 169 171 171 168 168 166 165 163 164 166 165 167 166 158 149 157 156 150 126 130 129 135
229 253 258 234 235 231 257 223 237 248 307 76 115 2 246 231 200 188 181 181 184 179 176 176 177 177 169 170 172 172 170 165 166 156 133 118 98 86 93 121 160 158 141 134
254 258 269 257 244 208 258 249 230 233 133 264 154 205 259 220 206 193 187 182 184 183 177 176 179 177 175 176 171 164 160 157 154 144 142 145 150 162 184 185 185 163 144 139
258 261 256 251 240 216 229 254 252 241 162 355 337 145 267 189 205 209 196 191 191 187 180 178 178 176 174 170 164 157 151 149 143 144 151 149 152 164 157 154 147 146 153 170
255 266 233 232 250 233 205 20 356 24 73 320 262 171 265 215 207 203 198 193 190 183 179 175 169 159 164 166 161 156 154 157 152 151 153 155 158 156 149 159 162 171 227 242
291 292 278 255 284 304 71 87 22 355 7 262 276 178 247 239 210 194 192 193 184 177 173 170 161 162 166 169 168 165 160 162 164 162 167 167 165 159 165 174 176 175 199 222
237 278 262 247 208 216 213 142 158 201 233 277 324 251 269 268 219 190 183 176 166 161 166 170 170 171 170 168 167 168 169 170 172 170 175 175 168 168 176 178 174 180 197 211
199 251 263 243 221 165 171 169 167 144 164 2 293 296 321 351 81 167 167 150 161 163 159 170 176 171 168 167 170 170 171 173 173 171 167 164 165 163 168 170 173 180 199 201
181 242 284 290 10 21 154 155 92 106 157 250 287 271 245 258 224 190 160 156 160 159 159 164 164 162 164 163 160 166 172 176 173 170 174 173 177 174 167 163 177 187 201 205
167 187 291 344 185 228 359 84 110 123 153 163 235 268 230 208 205 187 182 171 162 158 160 161 157 156 159 160 159 166 168 166 166 172 178 176 180 175 160 165 185 196 208 203
175 147 247 266 265 202 158 165 141 152 221 173 173 258 269 198 184 169 174 166 153 153 154 153 148 149 151 156 157 158 162 163 168 172 177 183 179 173 173 185 199 198 208 212
133 117 84 334 337 355 41 243 159 145 142 162 171 249 305 130 158 158 152 153 145 139 135 133 135 141 145 147 152 154 164 168 170 170 175 180 180 180 192 201 206 203 212 224
109 105 149 191 229 249 282 292 265 126 156 197 207 216 268 176 160 160 149 144 133 132 135 135 139 144 145 147 153 159 173 172 169 171 174 181 192 195 201 206 210 210 209 219
85 102 159 205 230 249 282 297 290 218 191 184 205 191 213 190 167 151 134 123 119 127 133 139 144 145 145 150 157 163 170 171 170 167 174 188 194 190 194 206 214 211 212 224
63 94 42 338 330 14 10 357 359 7 100 162 143 187 220 171 123 114 122 123 120 127 140 143 145 147 153 159 162 162 169 167 161 166 179 183 183 186 191 202 206 215 229 236
68 103 84 288 312 29 347 329 27 45 5 150 176 215 160 122 135 145 139 131 133 136 148 157 165 165 164 162 157 166 171 165 159 170 177 179 183 185 194 199 193 213 224 232
146 119 136 158 39 213 234 275 112 93 31 35 112 136 139 147 144 131 132 132 136 137 147 156 161 157 161 162 157 154 146 157 165 171 175 178 172 183 192 187 208 226 227 219
151 142 130 131 167 248 298 318 306 130 4 7 62 96 110 105 77 52 77 123 135 136 145 154 150 143 143 150 152 140 138 149 155 168 182 186 178 187 199 210 222 229 227 232
59 103 120 127 155 209 254 292 293 105 13 339 85 114 115 100 100 240 310 110 115 109 115 128 122 115 121 133 135 132 140 146 170 181 189 197 189 199 214 223 225 226 226 233
16 24 96 152 185 243 266 291 37 108 237 298 96 123 131 138 165 173 121 96 102 106 109 112 110 113 128 130 120 122 124 152 189 177 178 189 195 197 204 217 220 229 236 237
162 125 179 133 163 253 294 22 119 193 207 122 93 101 112 116 110 107 107 104 108 106 101 106 104 98 102 110 114 116 143 194 149 148 159 183 198 203 209 208 234 226 212 221
145 176 175 180 210 243 328 112 155 149 128 125 124 122 118 117 116 114 111 110 114 119 116 113 114 104 91 103 119 133 201 142 106 114 172 197 206 215 202 198 220 233 221 217
316 58 99 72 315 347 42 49 55 101 129 144 138 135 131 127 127 117 114 113 107 101 115 115 114 114 112 108 115 150 163 124 112 130 221 202 192 234 232 212 204 204 217 222
268 30 83 119 254 23 5 16 36 59 79 94 103 122 140 133 134 135 128 120 111 105 100 111 126 143 161 149 133 117 117 118 119 164 242 236 219 213 222 243 238 226 226 217
254 178 160 211 222 180 257 288 44 68 81 97 107 98 102 119 127 128 133 137 128 124 114 113 118 129 132 120 114 315 172 139 138 201 260 238 226 225 225 235 288 299 268 255
Height
1497 1504 1509 1505 1502 1503 1504 1508 1510 1502 1492 1497 1502 1503 1501 1502 1503 1504 1505 1507 1509 1511 1513 1514 1516 1517 1519 1521 1522 1524 1525 1526 1527 1528 1529 1530 1531 1531 1532 1532 1532 1532 1533 1533
1503 1506 1495 1493 1494 1497 1501 1508 1507 1499 1491 1497 1503 1503 1500 1500 1501 1500 1501 1504 1506 1508 1511 1512 1514 1515 1517 1519 1520 1523 1524 1525 1527 1528 1528 1529 1530 1531 1532 1532 1532 1532 1532 1532
1504 1496 1488 1491 1494 1498 1501 1505 1504 1502 1495 1495 1502 1511 1506 1501 1500 1501 1500 1501 1503 1505 1507 1510 1512 1513 1515 1517 1519 1521 1523 1524 1526 1527 1528 1529 1529 1530 1530 1531 1531 1531 1531 1531
1496 1489 1487 1490 1493 1493 1503 1492 1493 1495 1505 1513 1507 1528 1512 1503 1501 1499 1498 1499 1501 1504 1505 1507 1509 1511 1513 1516 1518 1520 1522 1523 1525 1526 1527 1527 1527 1528 1529 1530 1530 1530 1530 1530
1494 1487 1488 1490 1487 1486 1491 1485 1490 1494 1504 1514 1511 1522 1516 1503 1505 1499 1496 1496 1497 1499 1502 1503 1505 1508 1511 1514 1517 1519 1521 1522 1524 1525 1526 1526 1526 1527 1528 1528 1529 1529 1529 1529
1486 1481 1481 1481 1478 1479 1481 1487 1493 1501 1512 1528 1516 1521 1521 1506 1499 1494 1493 1494 1495 1497 1499 1501 1504 1507 1510 1513 1515 1517 1519 1521 1522 1523 1524 1525 1525 1526 1526 1527 1527 1528 1528 1528
1491 1483 1477 1476 1482 1481 1484 1505 1526 1529 1537 1533 1513 1516 1514 1492 1487 1488 1489 1490 1491 1494 1497 1500 1502 1505 1508 1510 1513 1515 1517 1518 1520 1521 1522 1523 1524 1525 1525 1525 1526 1526 1526 1526
1504 1501 1480 1474 1479 1486 1487 1500 1527 1539 1542 1532 1516 1518 1503 1486 1484 1484 1485 1487 1489 1492 1495 1498 1499 1502 1505 1507 1510 1513 1515 1516 1518 1519 1520 1522 1523 1523 1523 1524 1524 1524 1524 1524
1500 1497 1474 1470 1469 1475 1487 1496 1499 1518 1524 1532 1524 1510 1497 1486 1485 1484 1485 1486 1488 1490 1492 1495 1498 1500 1503 1505 1508 1510 1512 1514 1515 1517 1518 1520 1521 1521 1521 1522 1522 1522 1522 1522
1483 1492 1479 1470 1469 1472 1477 1485 1503 1519 1534 1540 1527 1518 1513 1496 1490 1486 1485 1486 1486 1488 1490 1493 1495 1498 1501 1503 1506 1508 1510 1512 1514 1515 1516 1517 1518 1518 1519 1520 1520 1520 1520 1520
1477 1491 1487 1479 1481 1483 1483 1489 1500 1514 1521 1536 1539 1525 1491 1488 1485 1484 1484 1483 1483 1485 1489 1492 1494 1498 1500 1503 1504 1506 1507 1508 1511 1513 1514 1515 1516 1516 1517 1517 1517 1517 1517 1517
1474 1488 1496 1486 1475 1471 1476 1485 1496 1514 1519 1521 1528 1518 1481 1481 1480 1481 1482 1482 1483 1485 1488 1492 1494 1497 1499 1500 1502 1504 1506 1506 1508 1510 1512 1512 1513 1514 1514 1514 1515 1515 1515 1515
1472 1489 1505 1502 1493 1480 1479 1480 1485 1495 1508 1518 1524 1512 1481 1480 1481 1480 1481 1482 1484 1487 1490 1492 1494 1496 1497 1499 1500 1502 1504 1505 1506 1508 1509 1510 1511 1511 1512 1512 1512 1512 1512 1512
1466 1486 1499 1508 1502 1488 1484 1480 1480 1492 1509 1512 1508 1500 1488 1483 1483 1482 1481 1482 1484 1488 1490 1491 1493 1496 1497 1498 1500 1501 1502 1504 1504 1506 1507 1508 1508 1509 1509 1510 1509 1509 1509 1509
1469 1485 1485 1485 1480 1479 1479 1478 1477 1483 1490 1499 1496 1493 1486 1481 1480 1481 1481 1483 1486 1488 1489 1490 1492 1494 1495 1497 1498 1500 1501 1502 1503 1503 1504 1505 1506 1506 1507 1507 1507 1507 1506 1506
1473 1483 1484 1485 1477 1478 1481 1478 1477 1478 1481 1485 1486 1489 1480 1478 1479 1481 1482 1483 1486 1488 1489 1490 1491 1493 1494 1495 1496 1498 1499 1500 1500 1501 1502 1503 1503 1504 1503 1503 1504 1504 1504 1503
1478 1484 1492 1496 1484 1483 1494 1485 1482 1483 1481 1482 1488 1485 1479 1480 1480 1481 1483 1484 1485 1487 1489 1490 1491 1492 1493 1494 1495 1496 1497 1498 1499 1499 1500 1500 1500 1501 1501 1501 1501 1501 1501 1500
1478 1486 1495 1498 1494 1506 1494 1478 1477 1480 1481 1478 1478 1478 1478 1479 1480 1481 1482 1483 1485 1487 1489 1489 1490 1491 1493 1493 1494 1494 1495 1496 1497 1497 1498 1498 1498 1498 1498 1498 1498 1498 1498 1497
1470 1481 1495 1503 1506 1500 1487 1478 1477 1481 1486 1481 1480 1479 1479 1480 1481 1484 1484 1484 1485 1486 1488 1489 1489 1490 1491 1492 1492 1493 1493 1494 1495 1496 1496 1496 1496 1496 1496 1496 1495 1495 1495 1494
1470 1476 1490 1499 1503 1506 1492 1477 1473 1477 1490 1481 1479 1480 1480 1480 1487 1487 1484 1483 1484 1486 1488 1489 1489 1490 1490 1491 1491 1492 1492 1492 1493 1493 1494 1494 1494 1494 1494 1493 1493 1492 1492 1491
1483 1486 1492 1498 1501 1496 1482 1475 1473 1491 1493 1481 1478 1478 1478 1479 1482 1483 1483 1483 1484 1485 1487 1488 1489 1489 1489 1490 1490 1490 1491 1491 1492 1492 1492 1492 1492 1491 1491 1491 1490 1490 1489 1488
1488 1492 1495 1498 1502 1499 1478 1476 1481 1484 1479 1479 1478 1478 1478 1479 1480 1481 1482 1483 1485 1485 1486 1487 1488 1488 1489 1489 1489 1489 1489 1490 1490 1490 1490 1490 1489 1489 1488 1488 1487 1486 1486 1485
1484 1485 1488 1491 1493 1482 1477 1477 1478 1478 1478 1478 1478 1478 1479 1479 1480 1481 1482 1483 1484 1484 1484 1485 1486 1487 1488 1488 1488 1488 1488 1488 1488 1488 1487 1487 1487 1486 1486 1485 1484 1483 1483 1482
1480 1478 1482 1486 1484 1480 1479 1478 1478 1478 1477 1477 1477 1478 1479 1479 1480 1481 1482 1483 1483 1483 1483 1483 1484 1485 1486 1486 1486 1487 1486 1486 1486 1485 1485 1484 1484 1483 1483 1483 1482 1481 1480 1480
1481 1480 1483 1485 1482 1480 1480 1479 1479 1478 1477 1477 1477 1478 1478 1478 1479 1480 1481 1481 1481 1482 1483 1483 1483 1483 1483 1484 1484 1484 1484 1484 1483 1483 1482 1482 1481 1481 1480 1480 1479 1478 1478 1477
1478 1479 1482 1484 1480 1481 1480 1479 1478 1478 1477 1478 1478 1478 1478 1478 1478 1479 1480 1480 1480 1481 1481 1482 1482 1482 1482 1482 1481 1481 1481 1481 1480 1479 1479 1478 1478 1478 1477 1477 1476 1475 1475 1475